Location: Newark
(35.8967°N, 14.4625°E)
Time: 09:28:52
(UTC+00:00)

Envisat - Pass Details

Date: 24 October 2019
Orbit: 764 x 766 km, 98.1° (Epoch: 13 November)

Event Time Altitude Azimuth Distance (km) Brightness Sun altitude
Rises 18:18:14 0° 205° (SSW) 3,218 6.5 -25.4°
Reaches altitude 10° 18:21:15 10° 224° (SW) 2,296 5.9 -26.1°
Maximum altitude 18:24:39 18° 267° (W) 1,806 5.7 -26.7°
Drops below altitude 10° 18:28:05 10° 310° (NW) 2,306 6.1 -27.4°
Sets 18:31:08 0° 329° (NNW) 3,237 6.7 -28.1°
